Overview Statistics Trail Chart Weather Telemetry Raw packets
 

This is the latest recevied weather packets stored in our database for station/object SV1JSO-13. If no packets are shown the sender has not sent any weather packets the latest 10 day(s).

<< 76 77 78 79 80 81 82 >>
Time Temp. Humidity Pressure Rain* Wind** Luminosity Snow
1788116100 27.78° C 59% 1009.5 hPa 0 mm - 0 W/m² -
1788115800 27.78° C 60% 1009.5 hPa 0 mm - 0 W/m² -
1788115500 27.78° C 60% 1009.4 hPa 0 mm - 0 W/m² -
1788115200 28.33° C 60% 1009.4 hPa 0 mm - 0 W/m² -
1788114900 28.33° C 59% 1009.3 hPa 0 mm - 0 W/m² -
1788114600 28.33° C 59% 1009.3 hPa 0 mm - 0 W/m² -
1788114300 28.33° C 59% 1009.3 hPa 0 mm - 0 W/m² -
1788114000 28.33° C 56% 1009.2 hPa 0 mm - 0 W/m² -
1788113700 28.33° C 54% 1009.1 hPa 0 mm - 0 W/m² -
1788113400 28.33° C 54% 1009.1 hPa 0 mm - 0 W/m² -
1788113100 28.33° C 52% 1009.1 hPa 0 mm - 0 W/m² -
1788112800 28.89° C 49% 1009 hPa 0 mm - 0 W/m² -
1788112500 28.89° C 50% 1008.9 hPa 0 mm - 0 W/m² -
1788112200 28.89° C 50% 1008.8 hPa 0 mm - 0 W/m² -
1788111900 28.33° C 55% 1008.8 hPa 0 mm - 0 W/m² -
1788111600 28.33° C 60% 1008.8 hPa 0 mm - 0 W/m² -
1788111300 28.89° C 59% 1008.6 hPa 0 mm - 0 W/m² -
1788111000 28.89° C 57% 1008.5 hPa 0 mm - 0 W/m² -
1788110700 28.89° C 56% 1008.5 hPa 0 mm - 0 W/m² -
1788110400 28.89° C 55% 1008.4 hPa 0 mm - 0 W/m² -
1788110100 28.89° C 53% 1008.5 hPa 0 mm - 0 W/m² -
1788109800 29.44° C 53% 1008.5 hPa 0 mm - 0 W/m² -
1788109500 29.44° C 50% 1008.4 hPa 0 mm - 1 W/m² -
1788109200 29.44° C 45% 1008.5 hPa 0 mm - 2 W/m² -
1788108900 30° C 44% 1008.4 hPa 0 mm - 3 W/m² -

* Rain latest hour (hover to see other rain measurements)
** Current wind speed in m/s (hover to see current wind gust speed)